This is the latest recevied weather packets stored in our database for station/object M0HZQ-1. If no packets are shown the sender has not sent any weather packets the latest 10 day(s).
| Time | Temp. | Humidity | Pressure | Rain* | Wind** | Luminosity | Snow |
|---|---|---|---|---|---|---|---|
| 1777887054 | 15.56° C | 62% | 1015.1 hPa | 0 mm | - | - | - |
| 1777886089 | 15° C | 63% | 1015.1 hPa | 0 mm | - | - | - |
| 1777885014 | 15° C | 64% | 1015 hPa | 0 mm | - | - | - |
| 1777883899 | 14.44° C | 64% | 1015.1 hPa | 0 mm | - | - | - |
| 1777882884 | 15° C | 64% | 1015 hPa | 0 mm | - | - | - |
| 1777881759 | 14.44° C | 64% | 1014.7 hPa | 0 mm | - | - | - |
| 1777880774 | 15.56° C | 64% | 1014.7 hPa | 0 mm | - | - | - |
| 1777879724 | 15° C | 64% | 1014.5 hPa | 0 mm | - | - | - |
| 1777878577 | 15° C | 64% | 1014.3 hPa | 0 mm | - | - | - |
| 1777877444 | 14.44° C | 65% | 1014.1 hPa | 0 mm | - | - | - |
| 1777876256 | 15° C | 65% | 1013.8 hPa | 0 mm | - | - | - |
| 1777875264 | 14.44° C | 64% | 1013.6 hPa | 0 mm | - | - | - |
| 1777874217 | 15° C | 64% | 1013.4 hPa | 0 mm | - | - | - |
| 1777873064 | 15° C | 63% | 1013.3 hPa | 0 mm | - | - | - |
| 1777872104 | 15° C | 64% | 1013.1 hPa | 0 mm | - | - | - |
| 1777871024 | 15° C | 65% | 1012.8 hPa | 0 mm | - | - | - |
| 1777869989 | 15° C | 65% | 1012.7 hPa | 0 mm | - | - | - |
| 1777868799 | 14.44° C | 65% | 1012.5 hPa | 0 mm | - | - | - |
| 1777867689 | 14.44° C | 64% | 1012.6 hPa | 0 mm | - | - | - |
| 1777866497 | 14.44° C | 64% | 1012.7 hPa | 0 mm | - | - | - |
| 1777865329 | 15.56° C | 62% | 1012.7 hPa | 0 mm | - | - | - |
| 1777864254 | 16.11° C | 61% | 1012.7 hPa | 0 mm | - | - | - |
| 1777863174 | 15.56° C | 61% | 1012.5 hPa | 0 mm | - | - | - |
| 1777862197 | 16.11° C | 60% | 1012.5 hPa | 0 mm | - | - | - |
| 1777861089 | 16.11° C | 59% | 1012.4 hPa | 0 mm | - | - | - |
* Rain latest hour (hover to see other rain measurements)
** Current wind speed in m/s (hover to see current wind gust speed)